<?xml version="1.0"?>
<gpx xmlns="http://www.topografix.com/GPX/1/1" xmlns:xsi="http://www.w3.org/2001/XMLSchema-instance" version="1.1" creator="GPX RubyGem 1.0.0 -- http://dougfales.github.io/gpx/" xsi:schemaLocation="http://www.topografix.com/GPX/1/1 http://www.topografix.com/GPX/1/1/gpx.xsd">
  <metadata>
    <name/>
    <time>2026-05-08T05:30:31+00:00</time>
    <bound minlat="90.0" minlon="180.0" maxlat="-90.0" maxlon="-180.0"/>
  </metadata>
  <trk>
    <name/>
    <trkseg>
      <trkpt lat="46.554839" lon="8.005984">
        <time>1970-01-01T00:00:00+00:00</time>
        <ele>3624.0</ele>
      </trkpt>
      <trkpt lat="46.554721" lon="8.005951">
        <time>1970-01-01T00:00:00+00:00</time>
        <ele>3623.0</ele>
      </trkpt>
      <trkpt lat="46.554819" lon="8.006073">
        <time>1970-01-01T00:00:00+00:00</time>
        <ele>3622.0</ele>
      </trkpt>
      <trkpt lat="46.55481" lon="8.006182">
        <time>1970-01-01T00:00:00+00:00</time>
        <ele>3619.0</ele>
      </trkpt>
      <trkpt lat="46.554607" lon="8.006175">
        <time>1970-01-01T00:00:00+00:00</time>
        <ele>3618.0</ele>
      </trkpt>
      <trkpt lat="46.553602" lon="8.005076">
        <time>1970-01-01T00:00:00+00:00</time>
        <ele>3617.0</ele>
      </trkpt>
      <trkpt lat="46.552634" lon="8.004524">
        <time>1970-01-01T00:00:00+00:00</time>
        <ele>3608.0</ele>
      </trkpt>
      <trkpt lat="46.552292" lon="8.00425">
        <time>1970-01-01T00:00:00+00:00</time>
        <ele>3605.0</ele>
      </trkpt>
      <trkpt lat="46.552053" lon="8.003922">
        <time>1970-01-01T00:00:00+00:00</time>
        <ele>3602.0</ele>
      </trkpt>
      <trkpt lat="46.551769" lon="8.003415">
        <time>1970-01-01T00:00:00+00:00</time>
        <ele>3597.0</ele>
      </trkpt>
      <trkpt lat="46.551699" lon="8.003172">
        <time>1970-01-01T00:00:00+00:00</time>
        <ele>3596.0</ele>
      </trkpt>
      <trkpt lat="46.551659" lon="8.002919">
        <time>1970-01-01T00:00:00+00:00</time>
        <ele>3594.0</ele>
      </trkpt>
      <trkpt lat="46.551687" lon="8.001667">
        <time>1970-01-01T00:00:00+00:00</time>
        <ele>3584.0</ele>
      </trkpt>
      <trkpt lat="46.551638" lon="8.001109">
        <time>1970-01-01T00:00:00+00:00</time>
        <ele>3578.0</ele>
      </trkpt>
      <trkpt lat="46.551507" lon="8.000522">
        <time>1970-01-01T00:00:00+00:00</time>
        <ele>3571.0</ele>
      </trkpt>
      <trkpt lat="46.551121" lon="7.999419">
        <time>1970-01-01T00:00:00+00:00</time>
        <ele>3558.0</ele>
      </trkpt>
      <trkpt lat="46.550541" lon="7.998478">
        <time>1970-01-01T00:00:00+00:00</time>
        <ele>3539.0</ele>
      </trkpt>
      <trkpt lat="46.549667" lon="7.997354">
        <time>1970-01-01T00:00:00+00:00</time>
        <ele>3511.0</ele>
      </trkpt>
      <trkpt lat="46.548529" lon="7.995176">
        <time>1970-01-01T00:00:00+00:00</time>
        <ele>3491.0</ele>
      </trkpt>
      <trkpt lat="46.54825" lon="7.994229">
        <time>1970-01-01T00:00:00+00:00</time>
        <ele>3485.0</ele>
      </trkpt>
      <trkpt lat="46.548141" lon="7.993487">
        <time>1970-01-01T00:00:00+00:00</time>
        <ele>3479.0</ele>
      </trkpt>
      <trkpt lat="46.54815" lon="7.99249">
        <time>1970-01-01T00:00:00+00:00</time>
        <ele>3471.0</ele>
      </trkpt>
      <trkpt lat="46.548309" lon="7.990589">
        <time>1970-01-01T00:00:00+00:00</time>
        <ele>3460.0</ele>
      </trkpt>
      <trkpt lat="46.548242" lon="7.989479">
        <time>1970-01-01T00:00:00+00:00</time>
        <ele>3455.0</ele>
      </trkpt>
      <trkpt lat="46.548353" lon="7.988969">
        <time>1970-01-01T00:00:00+00:00</time>
        <ele>3456.0</ele>
      </trkpt>
      <trkpt lat="46.548317" lon="7.988682">
        <time>1970-01-01T00:00:00+00:00</time>
        <ele>3456.0</ele>
      </trkpt>
      <trkpt lat="46.548223" lon="7.988479">
        <time>1970-01-01T00:00:00+00:00</time>
        <ele>3454.0</ele>
      </trkpt>
      <trkpt lat="46.548188" lon="7.988426">
        <time>1970-01-01T00:00:00+00:00</time>
        <ele>3453.0</ele>
      </trkpt>
      <trkpt lat="46.5481" lon="7.988514">
        <time>1970-01-01T00:00:00+00:00</time>
        <ele>3450.0</ele>
      </trkpt>
      <trkpt lat="46.547955" lon="7.988457">
        <time>1970-01-01T00:00:00+00:00</time>
        <ele>3446.0</ele>
      </trkpt>
      <trkpt lat="46.547389" lon="7.98804">
        <time>1970-01-01T00:00:00+00:00</time>
        <ele>3431.0</ele>
      </trkpt>
      <trkpt lat="46.547226" lon="7.987862">
        <time>1970-01-01T00:00:00+00:00</time>
        <ele>3428.0</ele>
      </trkpt>
      <trkpt lat="46.547246" lon="7.987706">
        <time>1970-01-01T00:00:00+00:00</time>
        <ele>3429.0</ele>
      </trkpt>
      <trkpt lat="46.547093" lon="7.987655">
        <time>1970-01-01T00:00:00+00:00</time>
        <ele>3425.0</ele>
      </trkpt>
      <trkpt lat="46.547038" lon="7.987506">
        <time>1970-01-01T00:00:00+00:00</time>
        <ele>3423.0</ele>
      </trkpt>
      <trkpt lat="46.546892" lon="7.987393">
        <time>1970-01-01T00:00:00+00:00</time>
        <ele>3419.0</ele>
      </trkpt>
      <trkpt lat="46.546806" lon="7.987199">
        <time>1970-01-01T00:00:00+00:00</time>
        <ele>3417.0</ele>
      </trkpt>
      <trkpt lat="46.546603" lon="7.98698">
        <time>1970-01-01T00:00:00+00:00</time>
        <ele>3411.0</ele>
      </trkpt>
      <trkpt lat="46.54582" lon="7.986469">
        <time>1970-01-01T00:00:00+00:00</time>
        <ele>3392.0</ele>
      </trkpt>
      <trkpt lat="46.545663" lon="7.986442">
        <time>1970-01-01T00:00:00+00:00</time>
        <ele>3388.0</ele>
      </trkpt>
      <trkpt lat="46.545341" lon="7.986556">
        <time>1970-01-01T00:00:00+00:00</time>
        <ele>3381.0</ele>
      </trkpt>
      <trkpt lat="46.544822" lon="7.986871">
        <time>1970-01-01T00:00:00+00:00</time>
        <ele>3368.0</ele>
      </trkpt>
      <trkpt lat="46.544604" lon="7.986023">
        <time>1970-01-01T00:00:00+00:00</time>
        <ele>3348.0</ele>
      </trkpt>
      <trkpt lat="46.544435" lon="7.985681">
        <time>1970-01-01T00:00:00+00:00</time>
        <ele>3338.0</ele>
      </trkpt>
      <trkpt lat="46.544672" lon="7.985221">
        <time>1970-01-01T00:00:00+00:00</time>
        <ele>3339.0</ele>
      </trkpt>
      <trkpt lat="46.544616" lon="7.985048">
        <time>1970-01-01T00:00:00+00:00</time>
        <ele>3338.0</ele>
      </trkpt>
      <trkpt lat="46.542867" lon="7.984089">
        <time>1970-01-01T00:00:00+00:00</time>
        <ele>3331.0</ele>
      </trkpt>
      <trkpt lat="46.54173" lon="7.983135">
        <time>1970-01-01T00:00:00+00:00</time>
        <ele>3319.0</ele>
      </trkpt>
      <trkpt lat="46.540721" lon="7.982051">
        <time>1970-01-01T00:00:00+00:00</time>
        <ele>3308.0</ele>
      </trkpt>
      <trkpt lat="46.540339" lon="7.981813">
        <time>1970-01-01T00:00:00+00:00</time>
        <ele>3311.0</ele>
      </trkpt>
      <trkpt lat="46.538055" lon="7.981429">
        <time>1970-01-01T00:00:00+00:00</time>
        <ele>3305.0</ele>
      </trkpt>
      <trkpt lat="46.53754" lon="7.981582">
        <time>1970-01-01T00:00:00+00:00</time>
        <ele>3312.0</ele>
      </trkpt>
      <trkpt lat="46.53673" lon="7.982381">
        <time>1970-01-01T00:00:00+00:00</time>
        <ele>3307.0</ele>
      </trkpt>
      <trkpt lat="46.536282" lon="7.982475">
        <time>1970-01-01T00:00:00+00:00</time>
        <ele>3314.0</ele>
      </trkpt>
      <trkpt lat="46.536325" lon="7.982445">
        <time>1970-01-01T00:00:00+00:00</time>
        <ele>3314.0</ele>
      </trkpt>
      <trkpt lat="46.535902" lon="7.982294">
        <time>1970-01-01T00:00:00+00:00</time>
        <ele>3318.0</ele>
      </trkpt>
      <trkpt lat="46.535708" lon="7.98214">
        <time>1970-01-01T00:00:00+00:00</time>
        <ele>3322.0</ele>
      </trkpt>
      <trkpt lat="46.534724" lon="7.98177">
        <time>1970-01-01T00:00:00+00:00</time>
        <ele>3322.0</ele>
      </trkpt>
      <trkpt lat="46.53436" lon="7.981866">
        <time>1970-01-01T00:00:00+00:00</time>
        <ele>3311.0</ele>
      </trkpt>
      <trkpt lat="46.534309" lon="7.981995">
        <time>1970-01-01T00:00:00+00:00</time>
        <ele>3305.0</ele>
      </trkpt>
      <trkpt lat="46.534347" lon="7.982422">
        <time>1970-01-01T00:00:00+00:00</time>
        <ele>3295.0</ele>
      </trkpt>
      <trkpt lat="46.534282" lon="7.982463">
        <time>1970-01-01T00:00:00+00:00</time>
        <ele>3291.0</ele>
      </trkpt>
      <trkpt lat="46.533873" lon="7.982118">
        <time>1970-01-01T00:00:00+00:00</time>
        <ele>3288.0</ele>
      </trkpt>
      <trkpt lat="46.533521" lon="7.982086">
        <time>1970-01-01T00:00:00+00:00</time>
        <ele>3289.0</ele>
      </trkpt>
      <trkpt lat="46.53288" lon="7.981861">
        <time>1970-01-01T00:00:00+00:00</time>
        <ele>3307.0</ele>
      </trkpt>
      <trkpt lat="46.532861" lon="7.981675">
        <time>1970-01-01T00:00:00+00:00</time>
        <ele>3312.0</ele>
      </trkpt>
      <trkpt lat="46.532109" lon="7.981715">
        <time>1970-01-01T00:00:00+00:00</time>
        <ele>3325.0</ele>
      </trkpt>
      <trkpt lat="46.532098" lon="7.9816">
        <time>1970-01-01T00:00:00+00:00</time>
        <ele>3327.0</ele>
      </trkpt>
      <trkpt lat="46.532231" lon="7.981352">
        <time>1970-01-01T00:00:00+00:00</time>
        <ele>3329.0</ele>
      </trkpt>
      <trkpt lat="46.531955" lon="7.981313">
        <time>1970-01-01T00:00:00+00:00</time>
        <ele>3333.0</ele>
      </trkpt>
      <trkpt lat="46.531619" lon="7.981106">
        <time>1970-01-01T00:00:00+00:00</time>
        <ele>3339.0</ele>
      </trkpt>
      <trkpt lat="46.531534" lon="7.980989">
        <time>1970-01-01T00:00:00+00:00</time>
        <ele>3341.0</ele>
      </trkpt>
      <trkpt lat="46.531662" lon="7.980685">
        <time>1970-01-01T00:00:00+00:00</time>
        <ele>3347.0</ele>
      </trkpt>
      <trkpt lat="46.531499" lon="7.980545">
        <time>1970-01-01T00:00:00+00:00</time>
        <ele>3347.0</ele>
      </trkpt>
      <trkpt lat="46.5314" lon="7.980171">
        <time>1970-01-01T00:00:00+00:00</time>
        <ele>3355.0</ele>
      </trkpt>
      <trkpt lat="46.531238" lon="7.980014">
        <time>1970-01-01T00:00:00+00:00</time>
        <ele>3356.0</ele>
      </trkpt>
      <trkpt lat="46.531168" lon="7.97977">
        <time>1970-01-01T00:00:00+00:00</time>
        <ele>3359.0</ele>
      </trkpt>
      <trkpt lat="46.5304" lon="7.978861">
        <time>1970-01-01T00:00:00+00:00</time>
        <ele>3373.0</ele>
      </trkpt>
      <trkpt lat="46.529691" lon="7.978322">
        <time>1970-01-01T00:00:00+00:00</time>
        <ele>3391.0</ele>
      </trkpt>
      <trkpt lat="46.529417" lon="7.97823">
        <time>1970-01-01T00:00:00+00:00</time>
        <ele>3399.0</ele>
      </trkpt>
      <trkpt lat="46.529217" lon="7.978056">
        <time>1970-01-01T00:00:00+00:00</time>
        <ele>3409.0</ele>
      </trkpt>
      <trkpt lat="46.529011" lon="7.978059">
        <time>1970-01-01T00:00:00+00:00</time>
        <ele>3415.0</ele>
      </trkpt>
      <trkpt lat="46.528797" lon="7.977932">
        <time>1970-01-01T00:00:00+00:00</time>
        <ele>3425.0</ele>
      </trkpt>
      <trkpt lat="46.528591" lon="7.977907">
        <time>1970-01-01T00:00:00+00:00</time>
        <ele>3429.0</ele>
      </trkpt>
      <trkpt lat="46.528366" lon="7.977958">
        <time>1970-01-01T00:00:00+00:00</time>
        <ele>3432.0</ele>
      </trkpt>
      <trkpt lat="46.527998" lon="7.977916">
        <time>1970-01-01T00:00:00+00:00</time>
        <ele>3438.0</ele>
      </trkpt>
      <trkpt lat="46.526963" lon="7.977553">
        <time>1970-01-01T00:00:00+00:00</time>
        <ele>3476.0</ele>
      </trkpt>
      <trkpt lat="46.526608" lon="7.977208">
        <time>1970-01-01T00:00:00+00:00</time>
        <ele>3497.0</ele>
      </trkpt>
      <trkpt lat="46.526363" lon="7.976636">
        <time>1970-01-01T00:00:00+00:00</time>
        <ele>3524.0</ele>
      </trkpt>
      <trkpt lat="46.526137" lon="7.976269">
        <time>1970-01-01T00:00:00+00:00</time>
        <ele>3552.0</ele>
      </trkpt>
      <trkpt lat="46.523803" lon="7.974681">
        <time>1970-01-01T00:00:00+00:00</time>
        <ele>3653.0</ele>
      </trkpt>
      <trkpt lat="46.523802" lon="7.974799">
        <time>1970-01-01T00:00:00+00:00</time>
        <ele>3653.0</ele>
      </trkpt>
      <trkpt lat="46.523799" lon="7.974674">
        <time>1970-01-01T00:00:00+00:00</time>
        <ele>3653.0</ele>
      </trkpt>
      <trkpt lat="46.523694" lon="7.974491">
        <time>1970-01-01T00:00:00+00:00</time>
        <ele>3653.0</ele>
      </trkpt>
      <trkpt lat="46.522815" lon="7.973226">
        <time>1970-01-01T00:00:00+00:00</time>
        <ele>3638.0</ele>
      </trkpt>
      <trkpt lat="46.522055" lon="7.972417">
        <time>1970-01-01T00:00:00+00:00</time>
        <ele>3628.0</ele>
      </trkpt>
      <trkpt lat="46.521461" lon="7.971909">
        <time>1970-01-01T00:00:00+00:00</time>
        <ele>3626.0</ele>
      </trkpt>
      <trkpt lat="46.520578" lon="7.971442">
        <time>1970-01-01T00:00:00+00:00</time>
        <ele>3627.0</ele>
      </trkpt>
      <trkpt lat="46.520273" lon="7.971192">
        <time>1970-01-01T00:00:00+00:00</time>
        <ele>3629.0</ele>
      </trkpt>
      <trkpt lat="46.519864" lon="7.971174">
        <time>1970-01-01T00:00:00+00:00</time>
        <ele>3634.0</ele>
      </trkpt>
      <trkpt lat="46.519624" lon="7.971059">
        <time>1970-01-01T00:00:00+00:00</time>
        <ele>3635.0</ele>
      </trkpt>
      <trkpt lat="46.519039" lon="7.971035">
        <time>1970-01-01T00:00:00+00:00</time>
        <ele>3645.0</ele>
      </trkpt>
      <trkpt lat="46.518702" lon="7.971148">
        <time>1970-01-01T00:00:00+00:00</time>
        <ele>3658.0</ele>
      </trkpt>
      <trkpt lat="46.518275" lon="7.970806">
        <time>1970-01-01T00:00:00+00:00</time>
        <ele>3667.0</ele>
      </trkpt>
      <trkpt lat="46.518106" lon="7.970812">
        <time>1970-01-01T00:00:00+00:00</time>
        <ele>3675.0</ele>
      </trkpt>
      <trkpt lat="46.51797" lon="7.970531">
        <time>1970-01-01T00:00:00+00:00</time>
        <ele>3665.0</ele>
      </trkpt>
      <trkpt lat="46.518011" lon="7.97055">
        <time>1970-01-01T00:00:00+00:00</time>
        <ele>3665.0</ele>
      </trkpt>
      <trkpt lat="46.517908" lon="7.970489">
        <time>1970-01-01T00:00:00+00:00</time>
        <ele>3663.0</ele>
      </trkpt>
      <trkpt lat="46.517277" lon="7.970576">
        <time>1970-01-01T00:00:00+00:00</time>
        <ele>3718.0</ele>
      </trkpt>
      <trkpt lat="46.516824" lon="7.970462">
        <time>1970-01-01T00:00:00+00:00</time>
        <ele>3746.0</ele>
      </trkpt>
      <trkpt lat="46.513164" lon="7.968548">
        <time>1970-01-01T00:00:00+00:00</time>
        <ele>3871.0</ele>
      </trkpt>
      <trkpt lat="46.513197" lon="7.968607">
        <time>1970-01-01T00:00:00+00:00</time>
        <ele>3869.0</ele>
      </trkpt>
      <trkpt lat="46.512334" lon="7.968853">
        <time>1970-01-01T00:00:00+00:00</time>
        <ele>3854.0</ele>
      </trkpt>
      <trkpt lat="46.512261" lon="7.968508">
        <time>1970-01-01T00:00:00+00:00</time>
        <ele>3849.0</ele>
      </trkpt>
      <trkpt lat="46.512783" lon="7.96764">
        <time>1970-01-01T00:00:00+00:00</time>
        <ele>3877.0</ele>
      </trkpt>
      <trkpt lat="46.512564" lon="7.96797">
        <time>1970-01-01T00:00:00+00:00</time>
        <ele>3871.0</ele>
      </trkpt>
      <trkpt lat="46.512413" lon="7.968555">
        <time>1970-01-01T00:00:00+00:00</time>
        <ele>3858.0</ele>
      </trkpt>
      <trkpt lat="46.512401" lon="7.968466">
        <time>1970-01-01T00:00:00+00:00</time>
        <ele>3858.0</ele>
      </trkpt>
      <trkpt lat="46.512418" lon="7.96858">
        <time>1970-01-01T00:00:00+00:00</time>
        <ele>3858.0</ele>
      </trkpt>
      <trkpt lat="46.51243" lon="7.968484">
        <time>1970-01-01T00:00:00+00:00</time>
        <ele>3859.0</ele>
      </trkpt>
      <trkpt lat="46.512541" lon="7.968712">
        <time>1970-01-01T00:00:00+00:00</time>
        <ele>3864.0</ele>
      </trkpt>
      <trkpt lat="46.512492" lon="7.968708">
        <time>1970-01-01T00:00:00+00:00</time>
        <ele>3862.0</ele>
      </trkpt>
      <trkpt lat="46.51256" lon="7.96866">
        <time>1970-01-01T00:00:00+00:00</time>
        <ele>3865.0</ele>
      </trkpt>
      <trkpt lat="46.512502" lon="7.968681">
        <time>1970-01-01T00:00:00+00:00</time>
        <ele>3862.0</ele>
      </trkpt>
      <trkpt lat="46.512505" lon="7.968749">
        <time>1970-01-01T00:00:00+00:00</time>
        <ele>3862.0</ele>
      </trkpt>
      <trkpt lat="46.51286" lon="7.968669">
        <time>1970-01-01T00:00:00+00:00</time>
        <ele>3870.0</ele>
      </trkpt>
      <trkpt lat="46.513038" lon="7.968698">
        <time>1970-01-01T00:00:00+00:00</time>
        <ele>3870.0</ele>
      </trkpt>
      <trkpt lat="46.513154" lon="7.9688">
        <time>1970-01-01T00:00:00+00:00</time>
        <ele>3866.0</ele>
      </trkpt>
      <trkpt lat="46.513243" lon="7.968631">
        <time>1970-01-01T00:00:00+00:00</time>
        <ele>3868.0</ele>
      </trkpt>
      <trkpt lat="46.513593" lon="7.968678">
        <time>1970-01-01T00:00:00+00:00</time>
        <ele>3856.0</ele>
      </trkpt>
      <trkpt lat="46.514307" lon="7.969211">
        <time>1970-01-01T00:00:00+00:00</time>
        <ele>3831.0</ele>
      </trkpt>
      <trkpt lat="46.515228" lon="7.970073">
        <time>1970-01-01T00:00:00+00:00</time>
        <ele>3817.0</ele>
      </trkpt>
      <trkpt lat="46.516633" lon="7.970875">
        <time>1970-01-01T00:00:00+00:00</time>
        <ele>3775.0</ele>
      </trkpt>
      <trkpt lat="46.517621" lon="7.970454">
        <time>1970-01-01T00:00:00+00:00</time>
        <ele>3681.0</ele>
      </trkpt>
      <trkpt lat="46.51789" lon="7.970444">
        <time>1970-01-01T00:00:00+00:00</time>
        <ele>3659.0</ele>
      </trkpt>
      <trkpt lat="46.51807" lon="7.970545">
        <time>1970-01-01T00:00:00+00:00</time>
        <ele>3663.0</ele>
      </trkpt>
      <trkpt lat="46.518214" lon="7.970838">
        <time>1970-01-01T00:00:00+00:00</time>
        <ele>3671.0</ele>
      </trkpt>
      <trkpt lat="46.520084" lon="7.971243">
        <time>1970-01-01T00:00:00+00:00</time>
        <ele>3631.0</ele>
      </trkpt>
      <trkpt lat="46.520324" lon="7.971367">
        <time>1970-01-01T00:00:00+00:00</time>
        <ele>3629.0</ele>
      </trkpt>
      <trkpt lat="46.520444" lon="7.971648">
        <time>1970-01-01T00:00:00+00:00</time>
        <ele>3626.0</ele>
      </trkpt>
      <trkpt lat="46.520549" lon="7.971744">
        <time>1970-01-01T00:00:00+00:00</time>
        <ele>3625.0</ele>
      </trkpt>
      <trkpt lat="46.521188" lon="7.971932">
        <time>1970-01-01T00:00:00+00:00</time>
        <ele>3627.0</ele>
      </trkpt>
      <trkpt lat="46.521816" lon="7.972276">
        <time>1970-01-01T00:00:00+00:00</time>
        <ele>3625.0</ele>
      </trkpt>
      <trkpt lat="46.522464" lon="7.972876">
        <time>1970-01-01T00:00:00+00:00</time>
        <ele>3634.0</ele>
      </trkpt>
      <trkpt lat="46.522828" lon="7.973348">
        <time>1970-01-01T00:00:00+00:00</time>
        <ele>3637.0</ele>
      </trkpt>
      <trkpt lat="46.523398" lon="7.974527">
        <time>1970-01-01T00:00:00+00:00</time>
        <ele>3648.0</ele>
      </trkpt>
      <trkpt lat="46.52362" lon="7.974794">
        <time>1970-01-01T00:00:00+00:00</time>
        <ele>3651.0</ele>
      </trkpt>
      <trkpt lat="46.523749" lon="7.974855">
        <time>1970-01-01T00:00:00+00:00</time>
        <ele>3652.0</ele>
      </trkpt>
      <trkpt lat="46.523829" lon="7.974748">
        <time>1970-01-01T00:00:00+00:00</time>
        <ele>3653.0</ele>
      </trkpt>
      <trkpt lat="46.523841" lon="7.974804">
        <time>1970-01-01T00:00:00+00:00</time>
        <ele>3653.0</ele>
      </trkpt>
      <trkpt lat="46.523824" lon="7.974732">
        <time>1970-01-01T00:00:00+00:00</time>
        <ele>3653.0</ele>
      </trkpt>
      <trkpt lat="46.523868" lon="7.974714">
        <time>1970-01-01T00:00:00+00:00</time>
        <ele>3653.0</ele>
      </trkpt>
      <trkpt lat="46.52426" lon="7.974694">
        <time>1970-01-01T00:00:00+00:00</time>
        <ele>3653.0</ele>
      </trkpt>
      <trkpt lat="46.524332" lon="7.974963">
        <time>1970-01-01T00:00:00+00:00</time>
        <ele>3649.0</ele>
      </trkpt>
      <trkpt lat="46.5243" lon="7.975425">
        <time>1970-01-01T00:00:00+00:00</time>
        <ele>3646.0</ele>
      </trkpt>
      <trkpt lat="46.524492" lon="7.975415">
        <time>1970-01-01T00:00:00+00:00</time>
        <ele>3640.0</ele>
      </trkpt>
      <trkpt lat="46.524844" lon="7.975172">
        <time>1970-01-01T00:00:00+00:00</time>
        <ele>3627.0</ele>
      </trkpt>
      <trkpt lat="46.525377" lon="7.974992">
        <time>1970-01-01T00:00:00+00:00</time>
        <ele>3614.0</ele>
      </trkpt>
      <trkpt lat="46.52555" lon="7.975016">
        <time>1970-01-01T00:00:00+00:00</time>
        <ele>3611.0</ele>
      </trkpt>
      <trkpt lat="46.525667" lon="7.975428">
        <time>1970-01-01T00:00:00+00:00</time>
        <ele>3595.0</ele>
      </trkpt>
      <trkpt lat="46.525889" lon="7.975535">
        <time>1970-01-01T00:00:00+00:00</time>
        <ele>3586.0</ele>
      </trkpt>
      <trkpt lat="46.526067" lon="7.976236">
        <time>1970-01-01T00:00:00+00:00</time>
        <ele>3555.0</ele>
      </trkpt>
      <trkpt lat="46.52633" lon="7.976343">
        <time>1970-01-01T00:00:00+00:00</time>
        <ele>3542.0</ele>
      </trkpt>
      <trkpt lat="46.526624" lon="7.97732">
        <time>1970-01-01T00:00:00+00:00</time>
        <ele>3493.0</ele>
      </trkpt>
      <trkpt lat="46.526801" lon="7.977506">
        <time>1970-01-01T00:00:00+00:00</time>
        <ele>3483.0</ele>
      </trkpt>
      <trkpt lat="46.527345" lon="7.977644">
        <time>1970-01-01T00:00:00+00:00</time>
        <ele>3460.0</ele>
      </trkpt>
      <trkpt lat="46.527379" lon="7.977717">
        <time>1970-01-01T00:00:00+00:00</time>
        <ele>3458.0</ele>
      </trkpt>
      <trkpt lat="46.527873" lon="7.977885">
        <time>1970-01-01T00:00:00+00:00</time>
        <ele>3442.0</ele>
      </trkpt>
      <trkpt lat="46.528103" lon="7.978076">
        <time>1970-01-01T00:00:00+00:00</time>
        <ele>3431.0</ele>
      </trkpt>
      <trkpt lat="46.528601" lon="7.977969">
        <time>1970-01-01T00:00:00+00:00</time>
        <ele>3427.0</ele>
      </trkpt>
      <trkpt lat="46.529022" lon="7.978011">
        <time>1970-01-01T00:00:00+00:00</time>
        <ele>3416.0</ele>
      </trkpt>
      <trkpt lat="46.530108" lon="7.978632">
        <time>1970-01-01T00:00:00+00:00</time>
        <ele>3379.0</ele>
      </trkpt>
      <trkpt lat="46.530549" lon="7.97902">
        <time>1970-01-01T00:00:00+00:00</time>
        <ele>3369.0</ele>
      </trkpt>
      <trkpt lat="46.531083" lon="7.979671">
        <time>1970-01-01T00:00:00+00:00</time>
        <ele>3361.0</ele>
      </trkpt>
      <trkpt lat="46.531899" lon="7.980144">
        <time>1970-01-01T00:00:00+00:00</time>
        <ele>3357.0</ele>
      </trkpt>
      <trkpt lat="46.531968" lon="7.980328">
        <time>1970-01-01T00:00:00+00:00</time>
        <ele>3353.0</ele>
      </trkpt>
      <trkpt lat="46.531932" lon="7.980759">
        <time>1970-01-01T00:00:00+00:00</time>
        <ele>3346.0</ele>
      </trkpt>
      <trkpt lat="46.532038" lon="7.98103">
        <time>1970-01-01T00:00:00+00:00</time>
        <ele>3340.0</ele>
      </trkpt>
      <trkpt lat="46.532172" lon="7.981189">
        <time>1970-01-01T00:00:00+00:00</time>
        <ele>3334.0</ele>
      </trkpt>
      <trkpt lat="46.532419" lon="7.981361">
        <time>1970-01-01T00:00:00+00:00</time>
        <ele>3327.0</ele>
      </trkpt>
      <trkpt lat="46.533156" lon="7.981626">
        <time>1970-01-01T00:00:00+00:00</time>
        <ele>3307.0</ele>
      </trkpt>
      <trkpt lat="46.533397" lon="7.98183">
        <time>1970-01-01T00:00:00+00:00</time>
        <ele>3298.0</ele>
      </trkpt>
      <trkpt lat="46.53386" lon="7.981971">
        <time>1970-01-01T00:00:00+00:00</time>
        <ele>3292.0</ele>
      </trkpt>
      <trkpt lat="46.534178" lon="7.982496">
        <time>1970-01-01T00:00:00+00:00</time>
        <ele>3286.0</ele>
      </trkpt>
      <trkpt lat="46.534528" lon="7.982873">
        <time>1970-01-01T00:00:00+00:00</time>
        <ele>3288.0</ele>
      </trkpt>
      <trkpt lat="46.535288" lon="7.983087">
        <time>1970-01-01T00:00:00+00:00</time>
        <ele>3295.0</ele>
      </trkpt>
      <trkpt lat="46.536039" lon="7.983199">
        <time>1970-01-01T00:00:00+00:00</time>
        <ele>3299.0</ele>
      </trkpt>
      <trkpt lat="46.536226" lon="7.983135">
        <time>1970-01-01T00:00:00+00:00</time>
        <ele>3301.0</ele>
      </trkpt>
      <trkpt lat="46.536547" lon="7.982891">
        <time>1970-01-01T00:00:00+00:00</time>
        <ele>3303.0</ele>
      </trkpt>
      <trkpt lat="46.537651" lon="7.981675">
        <time>1970-01-01T00:00:00+00:00</time>
        <ele>3306.0</ele>
      </trkpt>
      <trkpt lat="46.538084" lon="7.981429">
        <time>1970-01-01T00:00:00+00:00</time>
        <ele>3305.0</ele>
      </trkpt>
      <trkpt lat="46.540321" lon="7.981791">
        <time>1970-01-01T00:00:00+00:00</time>
        <ele>3312.0</ele>
      </trkpt>
      <trkpt lat="46.540784" lon="7.982024">
        <time>1970-01-01T00:00:00+00:00</time>
        <ele>3310.0</ele>
      </trkpt>
      <trkpt lat="46.540962" lon="7.98225">
        <time>1970-01-01T00:00:00+00:00</time>
        <ele>3310.0</ele>
      </trkpt>
      <trkpt lat="46.54114" lon="7.982825">
        <time>1970-01-01T00:00:00+00:00</time>
        <ele>3310.0</ele>
      </trkpt>
      <trkpt lat="46.541345" lon="7.983277">
        <time>1970-01-01T00:00:00+00:00</time>
        <ele>3313.0</ele>
      </trkpt>
      <trkpt lat="46.541861" lon="7.983864">
        <time>1970-01-01T00:00:00+00:00</time>
        <ele>3321.0</ele>
      </trkpt>
      <trkpt lat="46.543721" lon="7.986542">
        <time>1970-01-01T00:00:00+00:00</time>
        <ele>3330.0</ele>
      </trkpt>
      <trkpt lat="46.543884" lon="7.986985">
        <time>1970-01-01T00:00:00+00:00</time>
        <ele>3335.0</ele>
      </trkpt>
      <trkpt lat="46.543942" lon="7.987759">
        <time>1970-01-01T00:00:00+00:00</time>
        <ele>3345.0</ele>
      </trkpt>
      <trkpt lat="46.544387" lon="7.987419">
        <time>1970-01-01T00:00:00+00:00</time>
        <ele>3356.0</ele>
      </trkpt>
      <trkpt lat="46.545032" lon="7.986794">
        <time>1970-01-01T00:00:00+00:00</time>
        <ele>3375.0</ele>
      </trkpt>
      <trkpt lat="46.545901" lon="7.986467">
        <time>1970-01-01T00:00:00+00:00</time>
        <ele>3394.0</ele>
      </trkpt>
      <trkpt lat="46.546143" lon="7.986641">
        <time>1970-01-01T00:00:00+00:00</time>
        <ele>3400.0</ele>
      </trkpt>
      <trkpt lat="46.546563" lon="7.98679">
        <time>1970-01-01T00:00:00+00:00</time>
        <ele>3410.0</ele>
      </trkpt>
      <trkpt lat="46.546793" lon="7.986971">
        <time>1970-01-01T00:00:00+00:00</time>
        <ele>3417.0</ele>
      </trkpt>
      <trkpt lat="46.547164" lon="7.987331">
        <time>1970-01-01T00:00:00+00:00</time>
        <ele>3427.0</ele>
      </trkpt>
      <trkpt lat="46.547413" lon="7.987745">
        <time>1970-01-01T00:00:00+00:00</time>
        <ele>3433.0</ele>
      </trkpt>
      <trkpt lat="46.547853" lon="7.98809">
        <time>1970-01-01T00:00:00+00:00</time>
        <ele>3446.0</ele>
      </trkpt>
      <trkpt lat="46.548035" lon="7.988053">
        <time>1970-01-01T00:00:00+00:00</time>
        <ele>3452.0</ele>
      </trkpt>
      <trkpt lat="46.548084" lon="7.988002">
        <time>1970-01-01T00:00:00+00:00</time>
        <ele>3456.0</ele>
      </trkpt>
      <trkpt lat="46.548055" lon="7.987795">
        <time>1970-01-01T00:00:00+00:00</time>
        <ele>3459.0</ele>
      </trkpt>
      <trkpt lat="46.547965" lon="7.98762">
        <time>1970-01-01T00:00:00+00:00</time>
        <ele>3458.0</ele>
      </trkpt>
      <trkpt lat="46.547922" lon="7.987221">
        <time>1970-01-01T00:00:00+00:00</time>
        <ele>3466.0</ele>
      </trkpt>
      <trkpt lat="46.547952" lon="7.98663">
        <time>1970-01-01T00:00:00+00:00</time>
        <ele>3481.0</ele>
      </trkpt>
    </trkseg>
  </trk>
</gpx>
